,,,PA_Meas_PMT16A,,PR_Meas_QMR101_102,,RH_Meas_QMH101,,SR_Meas_QMS101,,TA_Meas_QMH101,,GenWind,,GenWind,
date,time,status,PA,status,PR,status,RH,status,SR,status,TA,status,DirAvg,status,SpdAvg,
2010-01-29, 00:00:04,VALID,1011.42,VALID,0,VALID,63.4768,VALID,0,VALID,25.7601,VALID,287,VALID,0.461328,
2010-01-29, 00:01:04,VALID,1011.41,VALID,0,VALID,63.6217,VALID,0,VALID,25.7406,VALID,286,VALID,0.0621094,
2010-01-29, 00:02:04,VALID,1011.42,VALID,0,VALID,63.6903,VALID,0,VALID,25.7406,VALID,273,VALID,0.525391,
2010-01-29, 00:03:04,VALID,1011.45,VALID,0,VALID,63.9801,VALID,0,VALID,25.7601,VALID,225,VALID,0.346484,
2010-01-29, 00:04:04,VALID,1011.46,VALID,0,VALID,64.0945,VALID,0,VALID,25.7601,VALID,224,VALID,0.488672,
2010-01-29, 00:05:04,VALID,1011.51,VALID,0,VALID,63.9572,VALID,0,VALID,25.6802,VALID,222,VALID,0.691797,
2010-01-29, 00:06:04,VALID,1011.47,VALID,0,VALID,63.9038,VALID,0,VALID,25.7211,VALID,207,VALID,0.741797,
2010-01-29, 00:07:04,VALID,1011.51,VALID,0,VALID,63.8199,VALID,0,VALID,25.7016,VALID,215,VALID,0.473828,
2010-01-29, 00:08:04,VALID,1011.51,VALID,0,VALID,63.9496,VALID,0,VALID,25.7016,VALID,220,VALID,0.675391,
2010-01-29, 00:09:04,VALID,1011.53,VALID,0,VALID,63.9877,VALID,0,VALID,25.7016,VALID,218,VALID,0.580469,
2010-01-29, 00:10:04,VALID,1011.52,VALID,0,VALID,64.0945,VALID,0,VALID,25.6821,VALID,221,VALID,0.644922,
2010-01-29, 00:11:04,VALID,1011.53,VALID,0,VALID,64.1097,VALID,0,VALID,25.6626,VALID,215,VALID,0.700781,
2010-01-29, 00:12:04,VALID,1011.52,VALID,0,VALID,64.1555,VALID,0,VALID,25.6626,VALID,233,VALID,0.680469,
2010-01-29, 00:13:04,VALID,1011.5,VALID,0,VALID,64.1783,VALID,0,VALID,25.6412,VALID,238,VALID,0.676172,
2010-01-29, 00:14:04,VALID,1011.5,VALID,0,VALID,64.2241,VALID,0,VALID,25.6821,VALID,230,VALID,0.691016,
2010-01-29, 00:15:04,VALID,1011.49,VALID,0,VALID,64.247,VALID,0,VALID,25.6821,VALID,220,VALID,0.272266,
2010-01-29, 00:16:04,VALID,1011.49,VALID,0,VALID,64.3766,VALID,0,VALID,25.7016,VALID,221,VALID,0.112891,
2010-01-29, 00:17:04,VALID,1011.45,VALID,0,VALID,64.43,VALID,0,VALID,25.6821,VALID,284,VALID,0.496094,
2010-01-29, 00:18:04,VALID,1011.45,VALID,0,VALID,64.4452,VALID,0,VALID,25.6607,VALID,287,VALID,0.141406,
2010-01-29, 00:19:04,VALID,1011.44,VALID,0,VALID,64.43,VALID,0,VALID,25.6412,VALID,279,VALID,0.46875,
2010-01-29, 00:20:04,VALID,1011.38,VALID,0,VALID,64.4529,VALID,0,VALID,25.6412,VALID,272,VALID,0.330469,
2010-01-29, 00:21:04,VALID,1011.38,VALID,0,VALID,64.5139,VALID,0.105969,VALID,25.6802,VALID,281,VALID,0.469922,
2010-01-29, 00:22:04,VALID,1011.36,VALID,0,VALID,64.5444,VALID,0,VALID,25.6821,VALID,280,VALID,0.192578,
2010-01-29, 00:23:04,VALID,1011.33,VALID,0,VALID,64.5215,VALID,0.105969,VALID,25.6197,VALID,277,VALID,0.367578,
2010-01-29, 00:24:04,VALID,1011.31,VALID,0,VALID,64.491,VALID,0,VALID,25.6626,VALID,260,VALID,0.432422,
2010-01-29, 00:25:04,VALID,1011.29,VALID,0,VALID,64.4757,VALID,0,VALID,25.6626,VALID,269,VALID,0.337891,
2010-01-29, 00:26:04,VALID,1011.28,VALID,0,VALID,64.552,VALID,0.105969,VALID,25.6821,VALID,249,VALID,0.273828,
2010-01-29, 00:27:04,VALID,1011.28,VALID,0,VALID,64.613,VALID,0,VALID,25.6626,VALID,224,VALID,0.330469,
2010-01-29, 00:28:04,VALID,1011.26,VALID,0,VALID,64.5978,VALID,0,VALID,25.6821,VALID,235,VALID,0.441406,
2010-01-29, 00:29:04,VALID,1011.24,VALID,0,VALID,64.6588,VALID,0,VALID,25.6821,VALID,232,VALID,0.589453,
2010-01-29, 00:30:04,VALID,1011.22,VALID,0,VALID,64.5139,VALID,0,VALID,25.6431,VALID,230,VALID,0.7875,
2010-01-29, 00:31:04,VALID,1011.21,VALID,0,VALID,64.4529,VALID,0,VALID,25.6821,VALID,212,VALID,0.433984,
2010-01-29, 00:32:04,VALID,1011.19,VALID,0,VALID,64.5139,VALID,0,VALID,25.6626,VALID,212,VALID,0.494922,
2010-01-29, 00:33:04,VALID,1011.15,VALID,0,VALID,64.6359,VALID,0,VALID,25.6821,VALID,212,VALID,0.0636719,
2010-01-29, 00:34:04,VALID,1011.1,VALID,0,VALID,64.7579,VALID,0,VALID,25.6626,VALID,212,VALID,0.220703,
2010-01-29, 00:35:04,VALID,1011.09,VALID,0,VALID,64.7884,VALID,0,VALID,25.6431,VALID,212,VALID,0.223047,
2010-01-29, 00:36:04,VALID,1011.05,VALID,0,VALID,64.8265,VALID,0,VALID,25.6431,VALID,212,VALID,0,
2010-01-29, 00:37:04,VALID,1010.98,VALID,0,VALID,64.7808,VALID,0,VALID,25.6217,VALID,248,VALID,0.304297,
2010-01-29, 00:38:04,VALID,1010.96,VALID,0,VALID,64.796,VALID,0,VALID,25.6022,VALID,248,VALID,0.151562,
2010-01-29, 00:39:04,VALID,1010.94,VALID,0,VALID,64.7655,VALID,0,VALID,25.6041,VALID,248,VALID,0.103516,
2010-01-29, 00:40:04,VALID,1010.94,VALID,0,VALID,64.7655,VALID,0,VALID,25.6041,VALID,248,VALID,0.220703,
2010-01-29, 00:41:04,VALID,1010.94,VALID,0,VALID,64.735,VALID,0,VALID,25.5827,VALID,248,VALID,0,
2010-01-29, 00:42:04,VALID,1010.94,VALID,0,VALID,64.7884,VALID,0,VALID,25.6041,VALID,248,VALID,0.009375,
2010-01-29, 00:43:04,VALID,1010.96,VALID,0,VALID,64.7808,VALID,0,VALID,25.5846,VALID,248,VALID,0.374219,
2010-01-29, 00:44:04,VALID,1010.91,VALID,0,VALID,64.8113,VALID,0,VALID,25.5846,VALID,217,VALID,0.462109,
2010-01-29, 00:45:04,VALID,1010.92,VALID,0,VALID,64.8342,VALID,0,VALID,25.6041,VALID,236,VALID,0.404297,
2010-01-29, 00:46:04,VALID,1010.89,VALID,0,VALID,64.7045,VALID,0,VALID,25.6041,VALID,220,VALID,0.610156,
2010-01-29, 00:47:04,VALID,1010.88,VALID,0,VALID,64.5901,VALID,0,VALID,25.6236,VALID,216,VALID,0.230078,
2010-01-29, 00:48:04,VALID,1010.85,VALID,0,VALID,64.5749,VALID,0,VALID,25.6236,VALID,216,VALID,0.119922,
2010-01-29, 00:49:04,VALID,1010.84,VALID,0,VALID,64.6969,VALID,0,VALID,25.6431,VALID,216,VALID,0,
2010-01-29, 00:50:04,VALID,1010.82,VALID,0,VALID,64.7579,VALID,0,VALID,25.6236,VALID,216,VALID,0,
2010-01-29, 00:51:04,VALID,1010.82,VALID,0,VALID,64.8265,VALID,0,VALID,25.6431,VALID,216,VALID,0,
2010-01-29, 00:52:04,VALID,1010.79,VALID,0,VALID,64.9104,VALID,0,VALID,25.6236,VALID,216,VALID,0.161719,
2010-01-29, 00:53:04,VALID,1010.78,VALID,0,VALID,64.9333,VALID,0,VALID,25.6236,VALID,216,VALID,0.00664063,
2010-01-29, 00:54:04,VALID,1010.74,VALID,0,VALID,64.9562,VALID,0,VALID,25.6041,VALID,218,VALID,0.124609,
2010-01-29, 00:55:04,VALID,1010.74,VALID,0,VALID,64.9562,VALID,0,VALID,25.6041,VALID,220,VALID,0.0726563,
2010-01-29, 00:56:04,VALID,1010.73,VALID,0,VALID,64.9638,VALID,0,VALID,25.5827,VALID,220,VALID,0.150391,
2010-01-29, 00:57:04,VALID,1010.7,VALID,0,VALID,65.0095,VALID,0,VALID,25.6041,VALID,220,VALID,0,
2010-01-29, 00:58:04,VALID,1010.69,VALID,0,VALID,65.0477,VALID,0,VALID,25.6061,VALID,220,VALID,0,
2010-01-29, 00:59:04,VALID,1010.69,VALID,0,VALID,65.1239,VALID,0,VALID,25.5846,VALID,220,VALID,0,
2010-01-29, 01:00:04,VALID,1010.69,VALID,0,VALID,65.1544,VALID,0,VALID,25.5651,VALID,266,VALID,0.137891,
2010-01-29, 01:01:04,VALID,1010.69,VALID,0,VALID,65.2078,VALID,0,VALID,25.5651,VALID,262,VALID,0.135547,
2010-01-29, 01:02:04,VALID,1010.69,VALID,0,VALID,65.2459,VALID,0,VALID,25.5651,VALID,245,VALID,0.405078,
2010-01-29, 01:03:04,VALID,1010.7,VALID,0,VALID,65.2459,VALID,0,VALID,25.5671,VALID,234,VALID,0.708984,
2010-01-29, 01:04:04,VALID,1010.69,VALID,0,VALID,65.2459,VALID,0,VALID,25.5242,VALID,235,VALID,0.564844,
2010-01-29, 01:05:04,VALID,1010.71,VALID,0,VALID,65.2383,VALID,0,VALID,25.5651,VALID,256,VALID,0.333594,
2010-01-29, 01:06:04,VALID,1010.75,VALID,0,VALID,65.2841,VALID,0,VALID,25.5846,VALID,232,VALID,0.466797,
2010-01-29, 01:07:04,VALID,1010.73,VALID,0,VALID,65.2688,VALID,0,VALID,25.5651,VALID,239,VALID,0.657812,
2010-01-29, 01:08:04,VALID,1010.72,VALID,0,VALID,65.2688,VALID,0,VALID,25.5846,VALID,241,VALID,0.354297,
2010-01-29, 01:09:04,VALID,1010.71,VALID,0,VALID,65.307,VALID,0,VALID,25.5846,VALID,220,VALID,0.488281,
2010-01-29, 01:10:04,VALID,1010.71,VALID,0,VALID,65.307,VALID,0,VALID,25.5437,VALID,231,VALID,0.398047,
2010-01-29, 01:11:04,VALID,1010.68,VALID,0,VALID,65.3298,VALID,0,VALID,25.5846,VALID,230,VALID,0.18125,
2010-01-29, 01:12:04,VALID,1010.64,VALID,0,VALID,65.3603,VALID,0,VALID,25.5846,VALID,226,VALID,0.344922,
2010-01-29, 01:13:04,VALID,1010.59,VALID,0,VALID,65.3451,VALID,0,VALID,25.5632,VALID,230,VALID,0.621875,
2010-01-29, 01:14:04,VALID,1010.53,VALID,0,VALID,65.3222,VALID,0,VALID,25.5846,VALID,245,VALID,0.173828,
2010-01-29, 01:15:04,VALID,1010.47,VALID,0,VALID,65.3222,VALID,0,VALID,25.6256,VALID,243,VALID,0,
2010-01-29, 01:16:04,VALID,1010.43,VALID,0,VALID,65.3527,VALID,0,VALID,25.6041,VALID,243,VALID,0,
2010-01-29, 01:17:04,VALID,1010.39,VALID,0,VALID,65.3222,VALID,0,VALID,25.5846,VALID,243,VALID,0,
2010-01-29, 01:18:04,VALID,1010.37,VALID,0,VALID,65.3222,VALID,0,VALID,25.5846,VALID,219,VALID,0,
2010-01-29, 01:19:04,VALID,1010.38,VALID,0,VALID,65.3375,VALID,0,VALID,25.6256,VALID,219,VALID,0,
2010-01-29, 01:20:04,VALID,1010.4,VALID,0,VALID,65.368,VALID,0,VALID,25.6041,VALID,219,VALID,0,
2010-01-29, 01:21:04,VALID,1010.42,VALID,0,VALID,65.3451,VALID,0,VALID,25.5846,VALID,203,VALID,0,
2010-01-29, 01:22:04,VALID,1010.46,VALID,0,VALID,65.3298,VALID,0,VALID,25.5632,VALID,203,VALID,0,
2010-01-29, 01:23:04,VALID,1010.47,VALID,0,VALID,65.2688,VALID,0,VALID,25.5846,VALID,203,VALID,0,
2010-01-29, 01:24:04,VALID,1010.5,VALID,0,VALID,65.2917,VALID,0,VALID,25.6041,VALID,203,VALID,0,
2010-01-29, 01:25:04,VALID,1010.52,VALID,0,VALID,65.2993,VALID,0,VALID,25.5846,VALID,203,VALID,0,
2010-01-29, 01:26:04,VALID,1010.52,VALID,0,VALID,65.3222,VALID,0,VALID,25.5846,VALID,206,VALID,0,
2010-01-29, 01:27:04,VALID,1010.51,VALID,0,VALID,65.3146,VALID,0,VALID,25.5846,VALID,232,VALID,0,
2010-01-29, 01:28:04,VALID,1010.53,VALID,0,VALID,65.3527,VALID,0,VALID,25.6041,VALID,232,VALID,0,
2010-01-29, 01:29:04,VALID,1010.49,VALID,0,VALID,65.3832,VALID,0,VALID,25.5846,VALID,232,VALID,0,
2010-01-29, 01:30:04,VALID,1010.54,VALID,0,VALID,65.3908,VALID,0,VALID,25.5827,VALID,232,VALID,0,
2010-01-29, 01:31:04,VALID,1010.51,VALID,0,VALID,65.4061,VALID,0,VALID,25.5846,VALID,232,VALID,0,
2010-01-29, 01:32:04,VALID,1010.56,VALID,0,VALID,65.4061,VALID,0,VALID,25.6041,VALID,232,VALID,0,
2010-01-29, 01:33:04,VALID,1010.57,VALID,0,VALID,65.4366,VALID,0,VALID,25.6236,VALID,232,VALID,0,
2010-01-29, 01:34:04,VALID,1010.57,VALID,0,VALID,65.4595,VALID,0,VALID,25.6041,VALID,232,VALID,0,
2010-01-29, 01:35:04,VALID,1010.59,VALID,0,VALID,65.4823,VALID,0,VALID,25.6041,VALID,232,VALID,0,
2010-01-29, 01:36:04,VALID,1010.63,VALID,0,VALID,65.49,VALID,0,VALID,25.6041,VALID,232,VALID,0,
2010-01-29, 01:37:04,VALID,1010.61,VALID,0,VALID,65.5128,VALID,0,VALID,25.5846,VALID,232,VALID,0,
2010-01-29, 01:38:04,VALID,1010.65,VALID,0,VALID,65.4747,VALID,0,VALID,25.5846,VALID,232,VALID,0,
2010-01-29, 01:39:04,VALID,1010.66,VALID,0,VALID,65.4823,VALID,0,VALID,25.5846,VALID,232,VALID,0,
2010-01-29, 01:40:04,VALID,1010.7,VALID,0,VALID,65.4823,VALID,0,VALID,25.6041,VALID,232,VALID,0,
2010-01-29, 01:41:04,VALID,1010.74,VALID,0,VALID,65.5205,VALID,0,VALID,25.6236,VALID,232,VALID,0,
2010-01-29, 01:42:04,VALID,1010.79,VALID,0,VALID,65.5205,VALID,0,VALID,25.6236,VALID,232,VALID,0,
2010-01-29, 01:43:04,VALID,1010.82,VALID,0,VALID,65.551,VALID,0,VALID,25.6236,VALID,232,VALID,0,
2010-01-29, 01:44:04,VALID,1010.82,VALID,0,VALID,65.5281,VALID,0,VALID,25.6431,VALID,232,VALID,0,
2010-01-29, 01:45:04,VALID,1010.85,VALID,0,VALID,65.5205,VALID,0,VALID,25.6626,VALID,231,VALID,0,
2010-01-29, 01:46:04,VALID,1010.86,VALID,0,VALID,65.5205,VALID,0,VALID,25.6626,VALID,237,VALID,0,
2010-01-29, 01:47:04,VALID,1010.85,VALID,0,VALID,65.4976,VALID,0,VALID,25.6626,VALID,247,VALID,0.11875,
2010-01-29, 01:48:04,VALID,1010.87,VALID,0,VALID,65.4595,VALID,0,VALID,25.6626,VALID,285,VALID,0.647656,
2010-01-29, 01:49:04,VALID,1010.87,VALID,0,VALID,65.4137,VALID,0,VALID,25.6821,VALID,302,VALID,0.555469,
2010-01-29, 01:50:04,VALID,1010.83,VALID,0,VALID,65.3908,VALID,0,VALID,25.6821,VALID,277,VALID,0.107031,
2010-01-29, 01:51:04,VALID,1010.84,VALID,0,VALID,65.3527,VALID,0,VALID,25.6821,VALID,282,VALID,0.338281,
2010-01-29, 01:52:04,VALID,1010.81,VALID,0,VALID,65.3222,VALID,0,VALID,25.7016,VALID,283,VALID,0.215234,
2010-01-29, 01:53:04,VALID,1010.78,VALID,0,VALID,65.3146,VALID,0,VALID,25.7211,VALID,295,VALID,0,
2010-01-29, 01:54:04,VALID,1010.77,VALID,0,VALID,65.2841,VALID,0,VALID,25.7211,VALID,295,VALID,0,
2010-01-29, 01:55:04,VALID,1010.73,VALID,0,VALID,65.2917,VALID,0,VALID,25.7016,VALID,295,VALID,0,
2010-01-29, 01:56:04,VALID,1010.73,VALID,0,VALID,65.307,VALID,0,VALID,25.7231,VALID,295,VALID,0,
2010-01-29, 01:57:04,VALID,1010.69,VALID,0,VALID,65.2841,VALID,0,VALID,25.6626,VALID,295,VALID,0,
2010-01-29, 01:58:04,VALID,1010.68,VALID,0,VALID,65.307,VALID,0,VALID,25.6821,VALID,295,VALID,0,
2010-01-29, 01:59:04,VALID,1010.67,VALID,0,VALID,65.3146,VALID,0,VALID,25.6626,VALID,295,VALID,0,
2010-01-29, 02:00:04,VALID,1010.67,VALID,0,VALID,65.3298,VALID,0,VALID,25.6431,VALID,295,VALID,0,
2010-01-29, 02:01:04,VALID,1010.65,VALID,0,VALID,65.3756,VALID,0,VALID,25.6626,VALID,295,VALID,0,
2010-01-29, 02:02:04,VALID,1010.65,VALID,0,VALID,65.4671,VALID,0,VALID,25.6646,VALID,295,VALID,0,
2010-01-29, 02:03:04,VALID,1010.68,VALID,0,VALID,65.4976,VALID,0,VALID,25.6626,VALID,295,VALID,0,
2010-01-29, 02:04:04,VALID,1010.67,VALID,0,VALID,65.551,VALID,0,VALID,25.6626,VALID,294,VALID,0,
2010-01-29, 02:05:04,VALID,1010.66,VALID,0,VALID,65.5434,VALID,0,VALID,25.6626,VALID,261,VALID,0,
2010-01-29, 02:06:04,VALID,1010.67,VALID,0,VALID,65.5128,VALID,0,VALID,25.6626,VALID,261,VALID,0,
2010-01-29, 02:07:04,VALID,1010.67,VALID,0,VALID,65.5052,VALID,0,VALID,25.6431,VALID,238,VALID,0.136719,
2010-01-29, 02:08:04,VALID,1010.63,VALID,0,VALID,65.5052,VALID,0,VALID,25.6431,VALID,235,VALID,0.442187,
2010-01-29, 02:09:04,VALID,1010.63,VALID,0,VALID,65.551,VALID,0,VALID,25.6626,VALID,235,VALID,0.286719,
2010-01-29, 02:10:04,VALID,1010.6,VALID,0,VALID,65.5662,VALID,0,VALID,25.6431,VALID,235,VALID,0.232031,
2010-01-29, 02:11:04,VALID,1010.53,VALID,0,VALID,65.551,VALID,0,VALID,25.6236,VALID,235,VALID,0.289063,
2010-01-29, 02:12:04,VALID,1010.51,VALID,0,VALID,65.5205,VALID,0,VALID,25.6041,VALID,235,VALID,0.260156,
2010-01-29, 02:13:04,VALID,1010.46,VALID,0,VALID,65.5128,VALID,0,VALID,25.6626,VALID,235,VALID,0.146094,
2010-01-29, 02:14:04,VALID,1010.46,VALID,0,VALID,65.5434,VALID,0,VALID,25.6626,VALID,235,VALID,0.147266,
2010-01-29, 02:15:04,VALID,1010.43,VALID,0,VALID,65.5662,VALID,0,VALID,25.6821,VALID,235,VALID,0,
2010-01-29, 02:16:04,VALID,1010.41,VALID,0,VALID,65.5739,VALID,0,VALID,25.6821,VALID,235,VALID,0.139844,
2010-01-29, 02:17:04,VALID,1010.41,VALID,0,VALID,65.5586,VALID,0,VALID,25.6802,VALID,235,VALID,0.290234,
2010-01-29, 02:18:04,VALID,1010.4,VALID,0,VALID,65.5357,VALID,0,VALID,25.6607,VALID,235,VALID,0.191016,
2010-01-29, 02:19:04,VALID,1010.37,VALID,0,VALID,65.5052,VALID,0,VALID,25.7016,VALID,235,VALID,0.176563,
2010-01-29, 02:20:04,VALID,1010.38,VALID,0,VALID,65.4747,VALID,0,VALID,25.7016,VALID,235,VALID,0,
2010-01-29, 02:21:04,VALID,1010.39,VALID,0,VALID,65.4747,VALID,0,VALID,25.7211,VALID,261,VALID,0,
2010-01-29, 02:22:04,VALID,1010.4,VALID,0,VALID,65.4595,VALID,0,VALID,25.7016,VALID,261,VALID,0,
2010-01-29, 02:23:04,VALID,1010.4,VALID,0,VALID,65.4595,VALID,0,VALID,25.7211,VALID,258,VALID,0.659766,
2010-01-29, 02:24:04,VALID,1010.41,VALID,0,VALID,65.3527,VALID,0,VALID,25.6821,VALID,285,VALID,1.09805,
2010-01-29, 02:25:04,VALID,1010.45,VALID,0,VALID,65.0706,VALID,0,VALID,25.6431,VALID,222,VALID,1.28125,
2010-01-29, 02:26:04,VALID,1010.44,VALID,0,VALID,64.8418,VALID,0,VALID,25.6236,VALID,289,VALID,0.953906,
2010-01-29, 02:27:04,VALID,1010.4,VALID,0,VALID,64.1783,VALID,0,VALID,25.5456,VALID,227,VALID,1.3457,
2010-01-29, 02:28:04,VALID,1010.42,VALID,0.5,VALID,63.5302,VALID,0,VALID,25.5066,VALID,227,VALID,0.676172,
2010-01-29, 02:29:04,VALID,1010.42,VALID,0,VALID,63.2785,VALID,0,VALID,25.4677,VALID,294,VALID,0.703125,
2010-01-29, 02:30:04,VALID,1010.42,VALID,0,VALID,62.7905,VALID,0,VALID,25.4092,VALID,249,VALID,0.313672,
2010-01-29, 02:31:04,VALID,1010.42,VALID,0,VALID,62.882,VALID,0,VALID,25.3488,VALID,280,VALID,0.601953,
2010-01-29, 02:32:04,VALID,1010.4,VALID,0,VALID,62.9658,VALID,0,VALID,25.3312,VALID,228,VALID,0.661719,
2010-01-29, 02:33:04,VALID,1010.42,VALID,0,VALID,62.9277,VALID,0,VALID,25.2941,VALID,279,VALID,0.743359,
2010-01-29, 02:34:04,VALID,1010.39,VALID,0,VALID,62.7066,VALID,0,VALID,25.1928,VALID,288,VALID,1.9668,
2010-01-29, 02:35:04,VALID,1010.4,VALID,0,VALID,62.6303,VALID,0,VALID,25.1557,VALID,291,VALID,1.52344,
2010-01-29, 02:36:04,VALID,1010.38,VALID,0,VALID,62.7294,VALID,0,VALID,25.1557,VALID,270,VALID,1.16328,
2010-01-29, 02:37:04,VALID,1010.42,VALID,0,VALID,63.0421,VALID,0,VALID,25.0954,VALID,296,VALID,0.836719,
2010-01-29, 02:38:04,VALID,1010.4,VALID,0,VALID,62.8057,VALID,0,VALID,25.0778,VALID,253,VALID,1.00742,
2010-01-29, 02:39:04,VALID,1010.39,VALID,0,VALID,62.8972,VALID,0,VALID,25.0583,VALID,318,VALID,0.883594,
2010-01-29, 02:40:04,VALID,1010.39,VALID,0,VALID,62.9277,VALID,0,VALID,25.0388,VALID,291,VALID,1.98633,
2010-01-29, 02:41:04,VALID,1010.38,VALID,0,VALID,62.9811,VALID,0,VALID,24.9784,VALID,269,VALID,2.14766,
2010-01-29, 02:42:04,VALID,1010.36,VALID,0,VALID,63.1489,VALID,0,VALID,24.9803,VALID,298,VALID,0.815625,
2010-01-29, 02:43:04,VALID,1010.33,VALID,0,VALID,62.8667,VALID,0,VALID,24.9413,VALID,276,VALID,2.73086,
2010-01-29, 02:44:04,VALID,1010.3,VALID,0,VALID,62.5693,VALID,0,VALID,24.8828,VALID,285,VALID,2.41602,
2010-01-29, 02:45:04,VALID,1010.28,VALID,0,VALID,62.6227,VALID,0,VALID,24.8438,VALID,276,VALID,1.43086,
2010-01-29, 02:46:04,VALID,1010.27,VALID,0,VALID,62.9658,VALID,0,VALID,24.8049,VALID,308,VALID,1.01328,
2010-01-29, 02:47:04,VALID,1010.25,VALID,0,VALID,63.065,VALID,0,VALID,24.7659,VALID,298,VALID,0.853125,
2010-01-29, 02:48:04,VALID,1010.21,VALID,0,VALID,63.3548,VALID,0,VALID,24.7464,VALID,314,VALID,0.848828,
2010-01-29, 02:49:04,VALID,1010.18,VALID,0,VALID,63.3548,VALID,0,VALID,24.686,VALID,269,VALID,1.35078,
2010-01-29, 02:50:04,VALID,1010.15,VALID,0,VALID,63.5225,VALID,0,VALID,24.6666,VALID,325,VALID,0.589844,
2010-01-29, 02:51:04,VALID,1010.08,VALID,0,VALID,63.6903,VALID,0,VALID,24.6276,VALID,282,VALID,1.89453,
2010-01-29, 02:52:04,VALID,1010.14,VALID,0,VALID,63.7208,VALID,0,VALID,24.5886,VALID,287,VALID,2.13359,
2010-01-29, 02:53:04,VALID,1010.12,VALID,0,VALID,63.9191,VALID,0.105969,VALID,24.5905,VALID,289,VALID,1.20742,
2010-01-29, 02:54:04,VALID,1010.08,VALID,0,VALID,64.1402,VALID,0,VALID,24.571,VALID,281,VALID,1.28008,
2010-01-29, 02:55:04,VALID,1010.05,VALID,0,VALID,64.308,VALID,0,VALID,24.5515,VALID,300,VALID,1.31211,
2010-01-29, 02:56:04,VALID,1009.98,VALID,0,VALID,64.4376,VALID,0,VALID,24.532,VALID,295,VALID,0.852344,
2010-01-29, 02:57:04,VALID,1009.96,VALID,0,VALID,64.5978,VALID,0,VALID,24.532,VALID,343,VALID,0.917578,
2010-01-29, 02:58:04,VALID,1009.98,VALID,0,VALID,64.6893,VALID,0,VALID,24.4911,VALID,299,VALID,0.860156,
2010-01-29, 02:59:04,VALID,1009.99,VALID,0,VALID,64.6206,VALID,0,VALID,24.532,VALID,299,VALID,0.692969,
2010-01-29, 03:00:04,VALID,1009.96,VALID,0,VALID,64.6054,VALID,0.105969,VALID,24.532,VALID,320,VALID,0.871484,
2010-01-29, 03:01:04,VALID,1009.96,VALID,0,VALID,64.674,VALID,0,VALID,24.532,VALID,299,VALID,1.30586,
2010-01-29, 03:02:04,VALID,1009.97,VALID,0,VALID,64.674,VALID,0,VALID,24.5125,VALID,317,VALID,1.46563,
2010-01-29, 03:03:04,VALID,1010,VALID,0,VALID,64.6816,VALID,0,VALID,24.4911,VALID,335,VALID,0.568359,
2010-01-29, 03:04:04,VALID,1009.98,VALID,0,VALID,64.613,VALID,0,VALID,24.4911,VALID,291,VALID,0.472656,
2010-01-29, 03:05:04,VALID,1009.92,VALID,0,VALID,64.0106,VALID,0.105969,VALID,24.4522,VALID,305,VALID,2.05859,
2010-01-29, 03:06:04,VALID,1009.93,VALID,0,VALID,63.5683,VALID,0,VALID,24.4132,VALID,296,VALID,1.16484,
2010-01-29, 03:07:04,VALID,1009.91,VALID,0,VALID,63.614,VALID,0,VALID,24.3937,VALID,299,VALID,0.716406,
2010-01-29, 03:08:04,VALID,1009.91,VALID,0,VALID,63.7971,VALID,0,VALID,24.415,VALID,252,VALID,0.382422,
2010-01-29, 03:09:04,VALID,1009.89,VALID,0,VALID,63.7666,VALID,0,VALID,24.3956,VALID,299,VALID,1.55352,
2010-01-29, 03:10:04,VALID,1009.85,VALID,0,VALID,63.8886,VALID,0,VALID,24.3742,VALID,307,VALID,0.976953,
2010-01-29, 03:11:04,VALID,1009.81,VALID,0,VALID,64.064,VALID,0,VALID,24.3566,VALID,10,VALID,0.473437,
2010-01-29, 03:12:04,VALID,1009.82,VALID,0,VALID,64.1402,VALID,0,VALID,24.3371,VALID,320,VALID,1.66367,
2010-01-29, 03:13:04,VALID,1009.76,VALID,0,VALID,64.1021,VALID,0,VALID,24.3371,VALID,311,VALID,0.817187,
2010-01-29, 03:14:04,VALID,1009.75,VALID,0,VALID,64.3156,VALID,0,VALID,24.3371,VALID,322,VALID,0.623438,
2010-01-29, 03:15:04,VALID,1009.76,VALID,0,VALID,64.5215,VALID,0.105969,VALID,24.2963,VALID,350,VALID,0.99375,
2010-01-29, 03:16:04,VALID,1009.73,VALID,0,VALID,64.6588,VALID,0,VALID,24.2981,VALID,326,VALID,1.09805,
2010-01-29, 03:17:04,VALID,1009.71,VALID,0,VALID,64.8113,VALID,0,VALID,24.2786,VALID,348,VALID,1.44687,
2010-01-29, 03:18:04,VALID,1009.71,VALID,0,VALID,64.9638,VALID,0,VALID,24.2591,VALID,348,VALID,1.18906,
2010-01-29, 03:19:04,VALID,1009.72,VALID,0,VALID,65.0934,VALID,0,VALID,24.2396,VALID,346,VALID,0.774609,
2010-01-29, 03:20:04,VALID,1009.7,VALID,0,VALID,65.2154,VALID,0,VALID,24.2396,VALID,341,VALID,0.778125,
2010-01-29, 03:21:04,VALID,1009.68,VALID,0,VALID,65.2993,VALID,0,VALID,24.2202,VALID,55,VALID,0.405469,
2010-01-29, 03:22:04,VALID,1009.66,VALID,0,VALID,65.3832,VALID,0,VALID,24.2007,VALID,321,VALID,1.07187,
2010-01-29, 03:23:04,VALID,1009.68,VALID,0,VALID,65.4823,VALID,0,VALID,24.1793,VALID,347,VALID,0.603125,
2010-01-29, 03:24:04,VALID,1009.65,VALID,0,VALID,65.5586,VALID,0,VALID,24.2007,VALID,327,VALID,0.4,
2010-01-29, 03:25:04,VALID,1009.62,VALID,0,VALID,65.6272,VALID,0,VALID,24.1599,VALID,332,VALID,0.582812,
2010-01-29, 03:26:04,VALID,1009.64,VALID,0,VALID,65.7111,VALID,0,VALID,24.1812,VALID,353,VALID,0.552734,
2010-01-29, 03:27:04,VALID,1009.58,VALID,0,VALID,65.7797,VALID,0,VALID,24.1617,VALID,353,VALID,0.185547,
2010-01-29, 03:28:04,VALID,1009.56,VALID,0,VALID,65.856,VALID,0.105969,VALID,24.1209,VALID,353,VALID,0,
2010-01-29, 03:29:04,VALID,1009.55,VALID,0,VALID,65.9246,VALID,0,VALID,24.1422,VALID,353,VALID,0,
2010-01-29, 03:30:04,VALID,1009.52,VALID,0,VALID,66.0085,VALID,0.105969,VALID,24.1422,VALID,353,VALID,0.375,
2010-01-29, 03:31:04,VALID,1009.53,VALID,0,VALID,66.0314,VALID,0,VALID,24.1014,VALID,339,VALID,0.273438,
2010-01-29, 03:32:04,VALID,1009.55,VALID,0,VALID,66.0543,VALID,0,VALID,24.1227,VALID,322,VALID,0,
2010-01-29, 03:33:04,VALID,1009.54,VALID,0,VALID,66.1,VALID,0.105969,VALID,24.1014,VALID,322,VALID,0,
2010-01-29, 03:34:04,VALID,1009.52,VALID,0,VALID,66.1305,VALID,0,VALID,24.1014,VALID,322,VALID,0,
2010-01-29, 03:35:04,VALID,1009.53,VALID,0,VALID,66.1915,VALID,0,VALID,24.1032,VALID,322,VALID,0,
2010-01-29, 03:36:04,VALID,1009.54,VALID,0,VALID,66.2373,VALID,0,VALID,24.0624,VALID,322,VALID,0,
2010-01-29, 03:37:04,VALID,1009.54,VALID,0,VALID,66.2678,VALID,0,VALID,24.0837,VALID,322,VALID,0,
2010-01-29, 03:38:04,VALID,1009.58,VALID,0,VALID,66.2983,VALID,0,VALID,24.0837,VALID,322,VALID,0,
2010-01-29, 03:39:04,VALID,1009.56,VALID,0,VALID,66.3517,VALID,0,VALID,24.0837,VALID,322,VALID,0,
2010-01-29, 03:40:04,VALID,1009.54,VALID,0,VALID,66.4051,VALID,0,VALID,24.0643,VALID,322,VALID,0,
2010-01-29, 03:41:04,VALID,1009.57,VALID,0,VALID,66.4584,VALID,0,VALID,24.0448,VALID,322,VALID,0,
2010-01-29, 03:42:04,VALID,1009.57,VALID,0,VALID,66.4889,VALID,0,VALID,24.004,VALID,322,VALID,0,
2010-01-29, 03:43:04,VALID,1009.54,VALID,0,VALID,66.5423,VALID,0.105969,VALID,24.0253,VALID,322,VALID,0,
2010-01-29, 03:44:04,VALID,1009.55,VALID,0,VALID,66.5576,VALID,0,VALID,24.004,VALID,322,VALID,0,
2010-01-29, 03:45:04,VALID,1009.54,VALID,0,VALID,66.5957,VALID,0,VALID,24.0253,VALID,322,VALID,0,
2010-01-29, 03:46:04,VALID,1009.53,VALID,0,VALID,66.6186,VALID,0,VALID,23.9863,VALID,322,VALID,0,
2010-01-29, 03:47:04,VALID,1009.52,VALID,0,VALID,66.6491,VALID,0,VALID,23.965,VALID,322,VALID,0,
2010-01-29, 03:48:04,VALID,1009.53,VALID,0,VALID,66.672,VALID,0,VALID,23.9863,VALID,322,VALID,0,
2010-01-29, 03:49:04,VALID,1009.5,VALID,0,VALID,66.6872,VALID,0,VALID,23.965,VALID,322,VALID,0,